Location: Milton Keynes
(52.0316°N, 0.7531°W)
Time: 03:14:05
(UTC+00:00)

ISS - Pass Details

Date: 28 January 2019
Orbit: 403 x 411 km, 51.6° (Epoch: 17 February)

Event Time Altitude Azimuth Distance (km) Brightness Sun altitude
Rises 18:04:42 0° 241° (WSW) 2,329 1.7 -12.5°
Reaches altitude 10° 18:06:49 10° 236° (SW) 1,472 0.2 -12.8°
Maximum altitude 18:10:01 50° 160° (SSE) 531 -3.3 -13.3°
Enters shadow 18:11:38 25° 95° (E) 871 -2.7 -13.5°
